Regional Weather Roundup
Issued by NWS Green Bay, WI

Home | Current Version | Previous Version | Graphics & Text | Print | Product List | Glossary Off
Versions: 1 2 3 4 5 6 7 8 9 10 11 12 13 14 15 16 17 18 19 20 21 22 23 24 25 26 27 28 29 30 31 32 33 34 35 36 37 38 39 40 41 42 43 44 45 46 47 48 49 50

000
ASUS43 KGRB 280210
RWRGRB

NORTH-CENTRAL AND NORTHEAST WISCONSIN REGIONAL WEATHER ROUNDUP
NATIONAL WEATHER SERVICE GREEN BAY WI
800 PM CST THU NOV 27 2014

WIZ005-009-010>012-018-019-280300-
NORTH CENTRAL WISCONSIN

CITY           SKY/WX    TMP DP  RH WIND       PRES   REMARKS
IRONWOOD       PTCLDY    -8  -8 100 CALM      30.27F
MANITOWISH WTR PTCLDY   -12 -16  82 CALM      30.25F
ARBOR VITAE    PTCLDY    -4  -8  82 CALM      30.27F
EAGLE RIVER    PTCLDY    -5 -10  79 CALM      30.26F
LAND O LAKES   PTCLDY   -11 -16  79 CALM      30.27F
RHINELANDER    PTCLDY    -6  -9  86 CALM      30.27F
PHILLIPS       CLEAR     -6  -8  88 CALM      30.28F
ANTIGO         PTCLDY   -12 -14  88 CALM      30.29S
TOMAHAWK       PTCLDY    -9 -13  81 CALM      30.29F
MERRILL        PTCLDY    -1  -4  87 CALM      30.31F
$$

WIZ013-073-280300-
NORTHEAST WISCONSIN

CITY           SKY/WX    TMP DP  RH WIND       PRES   REMARKS
IRON MOUNTAIN  CLEAR     -4  -7  87 CALM      30.31S
MARINETTE      CLEAR      3   1  92 CALM      30.36S
OCONTO         CLEAR      0  -3  87 W5        30.38R WCI -10
$$

WIZ017-030-035>037-045-280300-
CENTRAL WISCONSIN

CITY           SKY/WX    TMP DP  RH WIND       PRES   REMARKS
MEDFORD        PTCLDY    -1  -4  86 CALM      30.29F
WAUSAU         PTCLDY     4  -2  76 NW6       30.32S WCI  -7
MOSINEE        CLEAR      0  -2  92 CALM      30.34S
MARSHFIELD     PTCLDY    -1  -5  82 SW3       30.32F
WISC RAPIDS    PTCLDY     1  -5  75 CALM      30.37F
STEVENS POINT  PTCLDY    -4  -7  87 CALM      30.35F
WAUPACA        PTCLDY     6   0  76 SW3       30.38S
SHAWANO        CLEAR      8   3  82 W5        30.37S WCI  -1
CLINTONVILLE   PTCLDY     7   1  78 W3        30.37S
$$

WIZ038-039-048-051-280300-
FOX VALLEY

CITY           SKY/WX    TMP DP  RH WIND       PRES   REMARKS
NWS GREEN BAY  CLEAR      6   1  80 W7        30.38S WCI  -6
APPLETON       CLEAR      5   0  78 W8        30.37S WCI  -8
OSHKOSH        PTCLDY     7  -1  70 MISG      30.37F
FOND DU LAC    PTCLDY     8   0  69 W6        30.38S WCI  -2
$$

WIZ022-050-052-280300-
EAST CENTRAL WISCONSIN

CITY           SKY/WX    TMP DP  RH WIND       PRES   REMARKS
STURGEON BAY   CLEAR     12   1  62 NW5       30.35S WCI   4
MANITOWOC      CLEAR      9   5  84 W6        30.38S WCI  -1
SHEBOYGAN      CLEAR      8   4  83 W6        30.38S WCI  -2
$$

LMZ563-521-522-541>543-280300-
LAKESHORE

STATION/POSITION TIME  TEMP    WIND        PRES    VSBY  WAVE
                       AIR SEA DIR/SP/G                  HT/PER
                 (UTC) (F)     (DEG/KT/KT) (MB)    (MI)  (FT/S)
SHEBOYGAN LKSHOR 0200   14 34  280/  8/  9 1030.3F
KEWAUNEE LKSHORE 0200   11     300/  3/  5 1027.4F
NORTHPORT PIER   0200   17     320/ 12/ 16 1027.8S
N MID LAKE BUOY  0200   19 42  310/ 14/ 19 1028.2R         3/ 4
SISTER BAY LKSHO 0100          340/ 17/ 20   N/A
STURGEON BAY CG  0100   12     300/  2     1029.3    3/8   1
CHAMBERS ISLAND  0200   16     320/ 11/ 14 1028.1S
MENOMINEE LKSHOR 0200   13     300/  5/  7 1028.8F
$$



USA.gov is the U.S. government's official web portal to all federal, state and local government web resources and services.